TAR135 ORBI-OKKK

Flight info

Callsign TAR135
Flight time N/A
Altitude 23000
Route NOLDO P975 SIDAD N302 ALVAX
Aircraft A20N/M-SDE2E3FGHIRWXY/LB1

Departure

Time 2026-04-30 22:30
Airport Baghdad International Airport / New Al Muthana Air Base (ORBI)

Arrival

Time N/A
Airport Kuwait International Airport (OKKK)
Time Latitude Longitude Altitude Speed Heading
2026-04-30 22:02 33.26917 44.22908 136 ft 0 kts 180°
2026-04-30 22:15 33.26918 44.22908 136 ft 1 kts 180°
2026-04-30 22:15 33.26932 44.22909 136 ft 2 kts 182°
2026-04-30 22:15 33.26947 44.22910 135 ft 2 kts 182°
2026-04-30 22:15 33.26962 44.22910 135 ft 2 kts 182°
2026-04-30 22:16 33.26977 44.22911 135 ft 2 kts 182°
2026-04-30 22:16 33.26992 44.22912 135 ft 2 kts 182°
2026-04-30 22:17 33.27029 44.22914 134 ft 0 kts 174°
2026-04-30 22:17 33.27033 44.22912 134 ft 0 kts 115°
2026-04-30 22:17 33.27031 44.22901 134 ft 1 kts 52°
2026-04-30 22:18 33.27029 44.22897 134 ft 0 kts 57°
2026-04-30 22:19 33.27034 44.22908 134 ft 3 kts 58°
2026-04-30 22:20 33.27052 44.22941 134 ft 5 kts 58°
2026-04-30 22:20 33.27113 44.23064 134 ft 13 kts 58°
2026-04-30 22:20 33.27204 44.23069 132 ft 18 kts 328°
2026-04-30 22:21 33.27193 44.22952 131 ft 17 kts 256°
2026-04-30 22:21 33.27134 44.22800 130 ft 22 kts 239°
2026-04-30 22:21 33.27052 44.22632 127 ft 24 kts 240°
2026-04-30 22:21 33.26967 44.22449 122 ft 25 kts 241°
2026-04-30 22:22 33.26876 44.22266 120 ft 25 kts 238°
2026-04-30 22:22 33.26791 44.22086 120 ft 24 kts 240°
2026-04-30 22:22 33.26672 44.22091 121 ft 17 kts 100°
2026-04-30 22:22 33.26738 44.22153 120 ft 13 kts 78°
2026-04-30 22:23 33.26770 44.22255 120 ft 13 kts 61°
2026-04-30 22:23 33.26798 44.22316 120 ft 13 kts 60°
2026-04-30 22:23 33.26849 44.22422 122 ft 16 kts 60°
2026-04-30 22:23 33.26909 44.22549 125 ft 18 kts 60°
2026-04-30 22:24 33.26979 44.22694 128 ft 21 kts 60°
2026-04-30 22:24 33.27056 44.22854 132 ft 23 kts 60°
2026-04-30 22:24 33.27140 44.23029 134 ft 26 kts 60°
2026-04-30 22:24 33.27236 44.23050 131 ft 9 kts 355°
2026-04-30 22:25 33.27272 44.23094 130 ft 12 kts 56°
2026-04-30 22:25 33.27326 44.23203 129 ft 18 kts 61°
2026-04-30 22:25 33.27396 44.23351 128 ft 22 kts 60°
2026-04-30 22:25 33.27476 44.23478 127 ft 14 kts 351°
2026-04-30 22:26 33.27678 44.23348 126 ft 18 kts 330°
2026-04-30 22:26 33.27792 44.23268 127 ft 19 kts 330°
2026-04-30 22:26 33.27916 44.23184 127 ft 21 kts 330°
2026-04-30 22:27 33.28048 44.23094 127 ft 22 kts 329°
2026-04-30 22:27 33.28175 44.23006 127 ft 17 kts 330°
2026-04-30 22:27 33.28330 44.23032 127 ft 14 kts 59°
2026-04-30 22:28 33.28276 44.23190 127 ft 0 kts 150°
2026-04-30 22:28 33.28274 44.23191 127 ft 0 kts 150°
2026-04-30 22:29 33.26893 44.24137 142 ft 164 kts 150°
2026-04-30 22:29 33.25855 44.24781 599 ft 173 kts 154°
2026-04-30 22:30 33.22122 44.28439 2843 ft 205 kts 101°
2026-04-30 22:31 33.21153 44.33980 4266 ft 257 kts 108°
2026-04-30 22:32 33.19000 44.40399 6255 ft 291 kts 114°
2026-04-30 22:32 33.17350 44.44861 7936 ft 299 kts 116°
2026-04-30 22:33 33.14773 44.51713 10459 ft 308 kts 118°
2026-04-30 22:33 33.12929 44.56557 11327 ft 341 kts 118°
2026-04-30 22:34 33.09815 44.64751 12955 ft 372 kts 118°
2026-04-30 22:35 33.07687 44.70376 14409 ft 378 kts 118°
2026-04-30 22:36 33.03301 44.81917 17081 ft 390 kts 118°
2026-04-30 22:36 33.02167 44.84888 17706 ft 393 kts 118°
2026-04-30 22:37 32.98745 44.93834 19434 ft 404 kts 118°
2026-04-30 22:37 32.97576 44.96882 19968 ft 408 kts 117°
2026-04-30 22:37 32.95186 45.03111 21015 ft 416 kts 117°
2026-04-30 22:38 32.92769 45.09401 22003 ft 423 kts 117°
2026-04-30 22:38 32.90306 45.15802 22865 ft 430 kts 117°
2026-04-30 22:39 32.89061 45.19019 22946 ft 431 kts 117°
2026-04-30 22:39 32.85301 45.28677 22959 ft 430 kts 117°
2026-04-30 22:40 32.80690 45.37725 22956 ft 424 kts 134°
2026-04-30 22:41 32.74316 45.44933 22960 ft 422 kts 140°
2026-04-30 22:41 32.70023 45.49635 22960 ft 423 kts 140°
2026-04-30 22:42 32.61422 45.59121 22960 ft 423 kts 140°
2026-04-30 22:43 32.57133 45.63859 22961 ft 423 kts 140°
2026-04-30 22:43 32.52821 45.68642 22960 ft 423 kts 140°
2026-04-30 22:44 32.48548 45.73379 22960 ft 423 kts 140°
2026-04-30 22:45 32.39958 45.82848 22960 ft 423 kts 140°
2026-04-30 22:45 32.35632 45.87599 22960 ft 423 kts 140°
2026-04-30 22:46 32.31341 45.92287 22961 ft 423 kts 140°
2026-04-30 22:47 32.22709 46.01706 22961 ft 423 kts 140°
2026-04-30 22:47 32.18422 46.06375 22960 ft 423 kts 140°
2026-04-30 22:48 32.14090 46.11087 22961 ft 423 kts 140°
2026-04-30 22:49 32.07595 46.18143 22961 ft 423 kts 140°
2026-04-30 22:49 32.01133 46.25147 22961 ft 423 kts 140°
2026-04-30 22:50 31.92478 46.34507 22958 ft 423 kts 140°
2026-04-30 22:51 31.88133 46.39190 22952 ft 423 kts 140°
2026-04-30 22:51 31.83803 46.43828 22945 ft 423 kts 140°
2026-04-30 22:52 31.81633 46.46157 22942 ft 423 kts 140°
2026-04-30 22:52 31.77295 46.50816 22937 ft 423 kts 140°
2026-04-30 22:53 31.72982 46.55447 22935 ft 423 kts 140°
2026-04-30 22:53 31.68654 46.60091 22934 ft 423 kts 140°
2026-04-30 22:53 31.66465 46.62437 22934 ft 423 kts 140°
2026-04-30 22:54 31.62128 46.67089 22934 ft 423 kts 140°
2026-04-30 22:55 31.55668 46.74028 22934 ft 423 kts 141°
2026-04-30 22:55 31.50961 46.78053 22935 ft 419 kts 150°
2026-04-30 22:56 31.46082 46.81641 22927 ft 399 kts 150°
2026-04-30 22:56 31.39517 46.86560 22924 ft 351 kts 150°
2026-04-30 22:57 31.35602 46.89524 22922 ft 322 kts 151°
2026-04-30 22:57 31.32012 46.92246 22928 ft 302 kts 151°
2026-04-30 22:58 31.28505 46.94897 22933 ft 302 kts 151°
2026-04-30 22:59 31.23207 46.98906 22934 ft 302 kts 151°
2026-04-30 22:59 31.17940 47.02892 22934 ft 301 kts 151°